# STATION: RMTI4
# STATION NAME: Marshalltown (US-30)
# LATITUDE: 42.00370
# LONGITUDE: -92.96170
# ELEVATION [ft]: 956
# STATE: IA
Station_ID,Date_Time,air_temp_[C],relative_humidity_[%],wind_speed_[m/s],wind_direction_[degrees],wind_gust_[m/s]
RMTI4,08/09/2020 06:03 UTC,22.81,94.0,0.83,165.0,3.61
RMTI4,08/09/2020 06:13 UTC,22.71,94.0,1.67,150.0,3.88
RMTI4,08/09/2020 06:23 UTC,22.71,95.0,2.22,125.0,3.88
RMTI4,08/09/2020 06:33 UTC,22.61,95.0,1.94,155.0,3.33
RMTI4,08/09/2020 06:43 UTC,22.51,95.0,1.94,135.0,4.16
RMTI4,08/09/2020 06:53 UTC,22.41,95.0,2.5,160.0,3.33
RMTI4,08/09/2020 07:03 UTC,22.21,96.0,1.94,165.0,3.33
RMTI4,08/09/2020 07:13 UTC,22.11,96.0,1.11,165.0,2.78
RMTI4,08/09/2020 07:23 UTC,22.01,96.0,0.83,150.0,2.22
RMTI4,08/09/2020 07:33 UTC,22.01,96.0,1.67,135.0,3.06
RMTI4,08/09/2020 07:43 UTC,22.01,96.0,1.94,160.0,3.06
RMTI4,08/09/2020 07:53 UTC,21.81,96.0,0.83,155.0,3.06
RMTI4,08/09/2020 08:03 UTC,21.61,96.0,1.94,145.0,2.78
RMTI4,08/09/2020 08:13 UTC,21.51,96.0,1.67,130.0,3.06
RMTI4,08/09/2020 08:23 UTC,21.51,96.0,3.06,130.0,4.16
RMTI4,08/09/2020 08:33 UTC,21.51,96.0,2.5,140.0,3.61
RMTI4,08/09/2020 08:43 UTC,21.41,96.0,2.5,135.0,3.88
RMTI4,08/09/2020 08:53 UTC,21.41,96.0,2.78,145.0,4.16
RMTI4,08/09/2020 09:03 UTC,21.21,96.0,1.94,145.0,3.88
RMTI4,08/09/2020 09:13 UTC,21.11,96.0,2.22,120.0,3.61
RMTI4,08/09/2020 09:23 UTC,21.21,96.0,3.33,135.0,4.44
RMTI4,08/09/2020 09:33 UTC,21.31,96.0,2.78,125.0,3.88
RMTI4,08/09/2020 09:43 UTC,21.41,96.0,3.06,145.0,4.16
RMTI4,08/09/2020 09:53 UTC,21.51,96.0,2.78,135.0,5.0
RMTI4,08/09/2020 10:03 UTC,21.51,96.0,2.78,140.0,5.0
RMTI4,08/09/2020 10:13 UTC,21.41,96.0,2.78,145.0,4.72
RMTI4,08/09/2020 10:23 UTC,21.41,96.0,2.5,150.0,3.88
RMTI4,08/09/2020 10:33 UTC,21.51,96.0,2.78,140.0,4.16
RMTI4,08/09/2020 10:43 UTC,21.51,96.0,3.33,145.0,5.0
RMTI4,08/09/2020 10:53 UTC,21.61,96.0,4.16,155.0,5.55
RMTI4,08/09/2020 11:03 UTC,21.61,96.0,3.88,160.0,5.83
RMTI4,08/09/2020 11:13 UTC,21.71,96.0,3.88,155.0,5.55
RMTI4,08/09/2020 11:23 UTC,21.91,96.0,4.44,170.0,7.22
RMTI4,08/09/2020 11:33 UTC,22.01,96.0,1.67,170.0,5.55
RMTI4,08/09/2020 11:43 UTC,22.11,96.0,0.56,80.0,3.06
RMTI4,08/09/2020 11:53 UTC,22.21,96.0,1.39,170.0,2.78
RMTI4,08/09/2020 12:03 UTC,22.31,96.0,3.06,295.0,5.27
RMTI4,08/09/2020 12:13 UTC,21.01,96.0,4.16,330.0,11.1
RMTI4,08/09/2020 12:23 UTC,20.41,96.0,3.61,325.0,8.33
RMTI4,08/09/2020 12:33 UTC,20.21,96.0,3.33,345.0,6.66
RMTI4,08/09/2020 12:43 UTC,20.21,96.0,0.83,20.0,5.55
RMTI4,08/09/2020 12:53 UTC,20.21,96.0,1.11,45.0,2.78
RMTI4,08/09/2020 13:03 UTC,20.41,96.0,1.39,60.0,2.5
RMTI4,08/09/2020 13:13 UTC,20.71,96.0,2.5,100.0,3.06
RMTI4,08/09/2020 13:23 UTC,21.01,96.0,0.83,135.0,3.06
RMTI4,08/09/2020 13:33 UTC,21.91,96.0,1.67,145.0,2.5
RMTI4,08/09/2020 13:43 UTC,22.11,96.0,0.56,190.0,1.94
RMTI4,08/09/2020 13:53 UTC,23.11,96.0,1.94,150.0,3.06
RMTI4,08/09/2020 14:03 UTC,23.21,96.0,1.67,170.0,2.78
RMTI4,08/09/2020 14:13 UTC,22.91,94.0,2.22,190.0,3.88
RMTI4,08/09/2020 14:23 UTC,23.91,93.0,1.94,150.0,4.16
RMTI4,08/09/2020 14:33 UTC,24.41,88.0,3.33,220.0,5.0
RMTI4,08/09/2020 14:43 UTC,24.21,86.0,3.06,210.0,4.72
RMTI4,08/09/2020 14:53 UTC,24.51,86.0,0.83,215.0,3.88
RMTI4,08/09/2020 15:03 UTC,25.01,84.0,0.83,145.0,1.67
RMTI4,08/09/2020 15:13 UTC,25.81,79.0,1.94,45.0,3.33
RMTI4,08/09/2020 15:23 UTC,26.71,75.0,2.22,65.0,3.61
RMTI4,08/09/2020 15:33 UTC,27.61,74.0,0.56,170.0,2.78
RMTI4,08/09/2020 15:43 UTC,27.51,72.0,0.56,125.0,2.22
RMTI4,08/09/2020 15:53 UTC,27.31,72.0,0.83,165.0,1.67
RMTI4,08/09/2020 16:03 UTC,27.71,73.0,0.56,190.0,0.83
RMTI4,08/09/2020 16:13 UTC,28.51,70.0,1.11,110.0,2.5
RMTI4,08/09/2020 16:23 UTC,28.11,70.0,2.78,140.0,3.33
RMTI4,08/09/2020 16:33 UTC,28.41,71.0,2.22,145.0,4.16
RMTI4,08/09/2020 16:43 UTC,28.11,70.0,3.33,160.0,5.55
RMTI4,08/09/2020 16:53 UTC,28.41,71.0,1.67,165.0,6.11
RMTI4,08/09/2020 17:03 UTC,28.71,70.0,3.88,175.0,5.55
RMTI4,08/09/2020 17:13 UTC,29.31,70.0,2.5,150.0,5.0
RMTI4,08/09/2020 17:23 UTC,29.01,69.0,3.06,170.0,5.0
RMTI4,08/09/2020 17:33 UTC,28.91,69.0,1.67,195.0,3.88
RMTI4,08/09/2020 17:43 UTC,28.41,71.0,1.39,200.0,2.78
RMTI4,08/09/2020 17:53 UTC,28.21,71.0,1.11,160.0,3.61
RMTI4,08/09/2020 18:03 UTC,28.11,72.0,1.94,150.0,2.5
RMTI4,08/09/2020 18:13 UTC,28.31,72.0,0.83,220.0,1.67
RMTI4,08/09/2020 18:23 UTC,28.61,71.0,1.67,175.0,2.5
RMTI4,08/09/2020 18:33 UTC,28.81,70.0,1.94,150.0,3.88
RMTI4,08/09/2020 18:43 UTC,28.51,69.0,1.94,125.0,3.33
RMTI4,08/09/2020 18:53 UTC,28.41,70.0,1.94,135.0,3.61
RMTI4,08/09/2020 19:03 UTC,28.51,69.0,1.39,155.0,3.88
RMTI4,08/09/2020 19:13 UTC,29.21,66.0,2.5,130.0,3.33
RMTI4,08/09/2020 19:23 UTC,30.71,60.0,2.5,120.0,4.44
RMTI4,08/09/2020 19:33 UTC,31.51,57.0,2.5,155.0,4.44
RMTI4,08/09/2020 19:43 UTC,31.51,57.0,1.94,145.0,4.16
RMTI4,08/09/2020 19:53 UTC,31.71,57.0,2.78,135.0,5.0
RMTI4,08/09/2020 20:03 UTC,31.31,56.0,3.88,140.0,6.11
RMTI4,08/09/2020 20:13 UTC,31.31,56.0,2.78,180.0,5.55
RMTI4,08/09/2020 20:23 UTC,31.91,54.0,2.22,155.0,5.55
RMTI4,08/09/2020 20:33 UTC,31.81,55.0,2.78,140.0,5.27
RMTI4,08/09/2020 20:43 UTC,31.91,55.0,4.16,130.0,5.83
RMTI4,08/09/2020 20:53 UTC,31.71,56.0,3.88,150.0,6.66
RMTI4,08/09/2020 21:03 UTC,31.91,55.0,3.33,150.0,6.38
RMTI4,08/09/2020 21:13 UTC,32.11,55.0,4.16,135.0,5.83
RMTI4,08/09/2020 21:23 UTC,32.41,50.0,3.33,190.0,6.94
RMTI4,08/09/2020 21:33 UTC,32.41,50.0,4.44,170.0,6.66
RMTI4,08/09/2020 21:43 UTC,31.81,52.0,5.0,155.0,7.77
RMTI4,08/09/2020 21:53 UTC,31.71,52.0,4.72,155.0,8.05
RMTI4,08/09/2020 22:03 UTC,31.71,51.0,5.27,155.0,7.77
RMTI4,08/09/2020 22:13 UTC,31.51,51.0,4.72,170.0,7.5
RMTI4,08/09/2020 22:23 UTC,31.51,51.0,4.44,150.0,7.5
RMTI4,08/09/2020 22:33 UTC,31.31,52.0,5.83,150.0,8.05
RMTI4,08/09/2020 22:43 UTC,31.11,53.0,4.16,160.0,7.22
RMTI4,08/09/2020 22:53 UTC,31.21,53.0,4.16,160.0,6.66
RMTI4,08/09/2020 23:03 UTC,31.11,55.0,3.06,150.0,6.66
RMTI4,08/09/2020 23:13 UTC,30.91,56.0,4.72,150.0,8.05
RMTI4,08/09/2020 23:23 UTC,30.91,56.0,3.88,170.0,6.94
RMTI4,08/09/2020 23:33 UTC,30.91,58.0,3.06,165.0,6.38
RMTI4,08/09/2020 23:43 UTC,30.81,58.0,3.33,150.0,5.55
RMTI4,08/09/2020 23:53 UTC,30.61,59.0,3.61,170.0,6.11
RMTI4,08/10/2020 00:03 UTC,30.31,59.0,2.5,170.0,6.38
RMTI4,08/10/2020 00:13 UTC,30.11,60.0,1.39,170.0,4.16
RMTI4,08/10/2020 00:23 UTC,29.91,61.0,1.94,190.0,4.16
RMTI4,08/10/2020 00:33 UTC,29.41,63.0,1.67,180.0,4.16
RMTI4,08/10/2020 00:43 UTC,29.01,64.0,1.39,240.0,3.61
RMTI4,08/10/2020 00:53 UTC,28.31,67.0,1.94,165.0,3.33
RMTI4,08/10/2020 01:03 UTC,27.71,69.0,1.67,150.0,4.16
RMTI4,08/10/2020 01:13 UTC,27.11,72.0,1.67,160.0,3.06
RMTI4,08/10/2020 01:33 UTC,26.21,78.0,2.22,145.0,3.61
RMTI4,08/10/2020 01:43 UTC,25.61,81.0,1.67,155.0,3.33
RMTI4,08/10/2020 01:53 UTC,25.21,83.0,1.67,155.0,3.06
RMTI4,08/10/2020 02:03 UTC,25.01,86.0,1.39,165.0,2.78
RMTI4,08/10/2020 02:13 UTC,24.61,87.0,1.67,155.0,2.22
RMTI4,08/10/2020 02:23 UTC,24.41,89.0,0.83,165.0,1.94
RMTI4,08/10/2020 02:33 UTC,24.11,90.0,1.39,165.0,2.22
RMTI4,08/10/2020 02:43 UTC,23.91,91.0,1.39,160.0,2.22
RMTI4,08/10/2020 02:53 UTC,23.71,91.0,0.83,170.0,1.94
RMTI4,08/10/2020 03:03 UTC,23.61,92.0,0.83,155.0,2.5
RMTI4,08/10/2020 03:13 UTC,23.51,92.0,1.11,145.0,1.94
RMTI4,08/10/2020 03:23 UTC,23.31,93.0,1.11,160.0,1.94
RMTI4,08/10/2020 03:33 UTC,23.21,93.0,1.11,160.0,1.67
RMTI4,08/10/2020 03:43 UTC,23.01,93.0,1.11,160.0,1.67
RMTI4,08/10/2020 03:53 UTC,22.81,94.0,1.67,160.0,1.94
RMTI4,08/10/2020 04:03 UTC,22.71,94.0,1.67,185.0,2.78
RMTI4,08/10/2020 04:13 UTC,22.61,94.0,1.39,160.0,2.78
RMTI4,08/10/2020 04:23 UTC,22.41,94.0,1.11,170.0,1.94
RMTI4,08/10/2020 04:33 UTC,22.31,94.0,1.67,165.0,2.78
RMTI4,08/10/2020 04:43 UTC,22.31,94.0,0.83,165.0,2.78
RMTI4,08/10/2020 04:53 UTC,22.31,95.0,1.11,150.0,1.94
RMTI4,08/10/2020 05:03 UTC,22.31,95.0,1.11,190.0,2.5
RMTI4,08/10/2020 05:13 UTC,22.31,95.0,1.39,165.0,1.94
RMTI4,08/10/2020 05:23 UTC,22.31,95.0,1.11,185.0,2.5
RMTI4,08/10/2020 05:33 UTC,22.11,95.0,1.11,180.0,1.67
RMTI4,08/10/2020 05:43 UTC,22.11,95.0,1.39,175.0,2.22
RMTI4,08/10/2020 05:53 UTC,22.11,95.0,0.83,170.0,1.67
RMTI4,08/10/2020 06:03 UTC,22.01,95.0,1.67,165.0,1.94
RMTI4,08/10/2020 06:13 UTC,21.91,95.0,1.67,180.0,2.78
RMTI4,08/10/2020 06:23 UTC,21.81,95.0,1.94,165.0,2.5
RMTI4,08/10/2020 06:33 UTC,21.81,95.0,1.94,165.0,2.78
RMTI4,08/10/2020 06:43 UTC,21.61,95.0,1.67,160.0,2.78
RMTI4,08/10/2020 06:53 UTC,21.61,95.0,1.94,175.0,3.06
RMTI4,08/10/2020 07:03 UTC,21.51,96.0,1.67,165.0,3.06
RMTI4,08/10/2020 07:13 UTC,21.51,96.0,1.94,175.0,2.5
RMTI4,08/10/2020 07:23 UTC,21.51,96.0,1.67,180.0,2.5
RMTI4,08/10/2020 07:33 UTC,21.41,96.0,2.5,165.0,3.06
RMTI4,08/10/2020 07:43 UTC,21.51,96.0,2.5,155.0,3.33
RMTI4,08/10/2020 07:53 UTC,21.41,96.0,1.94,175.0,3.33
RMTI4,08/10/2020 08:03 UTC,21.31,96.0,2.5,160.0,3.33
RMTI4,08/10/2020 08:13 UTC,21.31,96.0,2.22,160.0,3.06
RMTI4,08/10/2020 08:23 UTC,21.31,96.0,1.94,165.0,3.06
RMTI4,08/10/2020 08:33 UTC,21.31,96.0,2.22,160.0,3.06
RMTI4,08/10/2020 08:43 UTC,21.51,96.0,2.5,160.0,3.88
RMTI4,08/10/2020 08:53 UTC,21.51,96.0,2.5,170.0,3.88
RMTI4,08/10/2020 09:03 UTC,21.61,96.0,2.5,170.0,3.88
RMTI4,08/10/2020 09:13 UTC,21.61,96.0,2.5,175.0,3.88
RMTI4,08/10/2020 09:23 UTC,21.61,96.0,2.78,170.0,4.16
RMTI4,08/10/2020 09:33 UTC,21.71,96.0,2.5,180.0,3.88
RMTI4,08/10/2020 09:43 UTC,21.71,96.0,1.11,185.0,3.88
RMTI4,08/10/2020 09:53 UTC,21.81,96.0,1.39,160.0,2.78
RMTI4,08/10/2020 10:03 UTC,21.81,96.0,1.39,175.0,3.06
RMTI4,08/10/2020 10:13 UTC,21.81,96.0,0.83,145.0,1.94
RMTI4,08/10/2020 10:23 UTC,21.81,96.0,0.83,190.0,1.94
RMTI4,08/10/2020 10:33 UTC,21.81,96.0,0.56,170.0,1.94
RMTI4,08/10/2020 10:43 UTC,21.71,96.0,0.83,175.0,1.67
RMTI4,08/10/2020 10:53 UTC,21.51,96.0,0.28,145.0,1.11
RMTI4,08/10/2020 11:03 UTC,21.41,96.0,0.56,125.0,1.39
RMTI4,08/10/2020 11:13 UTC,21.31,96.0,0.0,,0.83
RMTI4,08/10/2020 11:23 UTC,21.31,96.0,0.83,155.0,1.67
RMTI4,08/10/2020 11:33 UTC,21.51,96.0,0.56,180.0,2.22
RMTI4,08/10/2020 11:43 UTC,21.61,96.0,1.11,165.0,2.22
RMTI4,08/10/2020 11:53 UTC,21.81,96.0,1.11,210.0,1.94
RMTI4,08/10/2020 12:03 UTC,22.11,96.0,1.39,205.0,1.94
RMTI4,08/10/2020 12:13 UTC,22.31,96.0,1.67,215.0,2.78
RMTI4,08/10/2020 12:23 UTC,22.71,96.0,1.67,230.0,3.06
RMTI4,08/10/2020 12:33 UTC,23.01,96.0,1.67,270.0,3.06
RMTI4,08/10/2020 12:43 UTC,23.31,96.0,0.56,335.0,1.67
RMTI4,08/10/2020 12:53 UTC,23.81,96.0,0.56,330.0,1.11
RMTI4,08/10/2020 13:03 UTC,23.91,95.0,1.67,265.0,2.22
RMTI4,08/10/2020 13:13 UTC,24.21,94.0,2.22,210.0,2.78
RMTI4,08/10/2020 13:23 UTC,24.51,91.0,2.22,225.0,3.61
RMTI4,08/10/2020 13:43 UTC,25.01,88.0,2.5,265.0,3.33
RMTI4,08/10/2020 14:13 UTC,25.81,83.0,3.33,220.0,4.16
RMTI4,08/10/2020 14:43 UTC,27.01,79.0,1.67,305.0,3.06
RMTI4,08/10/2020 14:53 UTC,27.31,78.0,1.94,265.0,3.88
RMTI4,08/10/2020 15:03 UTC,27.31,77.0,3.06,255.0,4.44
RMTI4,08/10/2020 15:13 UTC,27.51,78.0,3.06,270.0,5.0
RMTI4,08/10/2020 15:23 UTC,28.01,77.0,2.5,240.0,5.27
RMTI4,08/10/2020 15:33 UTC,29.01,74.0,2.5,305.0,4.16
RMTI4,08/10/2020 15:43 UTC,28.61,75.0,1.39,320.0,6.38
RMTI4,08/10/2020 15:53 UTC,28.71,74.0,1.67,310.0,3.88
RMTI4,08/10/2020 16:03 UTC,28.01,77.0,1.39,320.0,3.61
RMTI4,08/10/2020 16:13 UTC,27.21,80.0,0.28,30.0,2.78
RMTI4,08/10/2020 16:23 UTC,26.51,84.0,1.67,350.0,4.44
RMTI4,08/10/2020 16:33 UTC,26.21,87.0,1.67,260.0,2.78
RMTI4,08/10/2020 16:43 UTC,15.01,98.0,24.98,295.0,40.8
RMTI4,08/10/2020 16:53 UTC,14.71,98.0,14.16,315.0,34.69
RMTI4,08/10/2020 17:03 UTC,15.91,98.0,9.71,315.0,25.82
RMTI4,08/10/2020 17:13 UTC,16.01,98.0,8.61,320.0,15.55
RMTI4,08/10/2020 17:23 UTC,16.01,98.0,9.16,335.0,15.55
RMTI4,08/10/2020 17:33 UTC,15.81,98.0,8.61,350.0,13.88
RMTI4,08/10/2020 17:43 UTC,15.81,98.0,7.77,0.0,13.6
RMTI4,08/10/2020 17:53 UTC,15.31,98.0,7.5,0.0,13.05
RMTI4,08/10/2020 18:03 UTC,14.71,98.0,5.83,0.0,10.55
RMTI4,08/10/2020 18:13 UTC,14.41,98.0,6.38,5.0,13.32
RMTI4,08/10/2020 18:23 UTC,14.51,98.0,3.33,25.0,11.94
RMTI4,08/10/2020 18:33 UTC,14.51,98.0,3.61,25.0,6.94
RMTI4,08/10/2020 18:43 UTC,14.61,98.0,5.27,55.0,8.05
RMTI4,08/10/2020 18:53 UTC,14.71,97.0,6.11,65.0,8.88
RMTI4,08/10/2020 19:03 UTC,15.01,96.0,5.27,70.0,8.05
RMTI4,08/10/2020 19:13 UTC,15.41,88.0,5.83,90.0,9.71
RMTI4,08/10/2020 19:23 UTC,15.81,77.0,6.94,100.0,10.27
RMTI4,08/10/2020 19:33 UTC,16.11,71.0,6.94,95.0,10.27
RMTI4,08/10/2020 19:43 UTC,17.01,67.0,7.5,100.0,12.21
RMTI4,08/10/2020 19:53 UTC,18.01,66.0,6.11,95.0,9.99
RMTI4,08/10/2020 20:03 UTC,19.91,65.0,5.55,115.0,8.88
RMTI4,08/10/2020 20:13 UTC,20.41,66.0,3.33,120.0,6.94
RMTI4,08/10/2020 20:23 UTC,21.21,66.0,3.06,100.0,5.83
RMTI4,08/10/2020 20:33 UTC,22.01,64.0,3.88,120.0,5.55
RMTI4,08/10/2020 20:43 UTC,22.71,60.0,1.11,40.0,3.06
RMTI4,08/10/2020 20:53 UTC,23.41,62.0,5.27,340.0,13.05
RMTI4,08/10/2020 21:03 UTC,22.11,64.0,7.22,325.0,12.49
RMTI4,08/10/2020 21:13 UTC,22.11,65.0,4.16,330.0,9.16
RMTI4,08/10/2020 21:23 UTC,22.71,63.0,3.06,270.0,7.22
RMTI4,08/10/2020 21:33 UTC,23.51,61.0,2.5,255.0,4.72
RMTI4,08/10/2020 21:43 UTC,23.81,60.0,3.06,250.0,4.44
RMTI4,08/10/2020 21:53 UTC,24.21,60.0,3.33,265.0,6.38
RMTI4,08/10/2020 22:03 UTC,24.21,59.0,3.33,265.0,6.38
RMTI4,08/10/2020 22:13 UTC,23.71,60.0,3.33,270.0,5.83
RMTI4,08/10/2020 22:23 UTC,23.51,61.0,3.06,285.0,6.94
RMTI4,08/10/2020 22:33 UTC,23.81,60.0,3.88,275.0,5.55
RMTI4,08/10/2020 22:43 UTC,24.11,61.0,3.88,300.0,6.38
RMTI4,08/10/2020 22:53 UTC,24.81,60.0,2.78,285.0,6.66
RMTI4,08/10/2020 23:03 UTC,24.41,60.0,3.88,280.0,7.5
RMTI4,08/10/2020 23:13 UTC,24.61,60.0,4.44,310.0,7.77
RMTI4,08/10/2020 23:23 UTC,24.21,59.0,2.78,325.0,7.77
RMTI4,08/10/2020 23:33 UTC,24.51,59.0,2.5,320.0,4.72
RMTI4,08/10/2020 23:43 UTC,24.11,57.0,2.5,345.0,6.11
RMTI4,08/10/2020 23:53 UTC,23.41,56.0,2.5,0.0,4.16
RMTI4,08/11/2020 00:03 UTC,23.51,55.0,1.94,340.0,3.61
RMTI4,08/11/2020 00:13 UTC,22.71,58.0,1.67,345.0,3.06
RMTI4,08/11/2020 00:23 UTC,22.81,59.0,1.67,330.0,2.5
RMTI4,08/11/2020 00:33 UTC,22.71,58.0,1.39,350.0,2.78
RMTI4,08/11/2020 00:43 UTC,22.31,60.0,1.39,0.0,2.78
RMTI4,08/11/2020 00:53 UTC,21.71,63.0,0.83,355.0,1.94
RMTI4,08/11/2020 01:03 UTC,21.11,65.0,1.11,355.0,1.67
RMTI4,08/11/2020 01:13 UTC,20.51,69.0,1.67,340.0,2.78
RMTI4,08/11/2020 01:23 UTC,19.71,73.0,1.67,0.0,2.78
RMTI4,08/11/2020 01:33 UTC,19.51,75.0,1.39,345.0,1.94
RMTI4,08/11/2020 01:43 UTC,19.31,76.0,1.67,340.0,2.5
RMTI4,08/11/2020 01:53 UTC,18.91,78.0,1.39,325.0,1.94
RMTI4,08/11/2020 02:03 UTC,18.61,80.0,1.39,305.0,1.94
RMTI4,08/11/2020 02:13 UTC,18.41,82.0,1.39,325.0,1.67
RMTI4,08/11/2020 02:23 UTC,17.91,84.0,0.83,325.0,1.67
RMTI4,08/11/2020 02:33 UTC,17.71,86.0,0.28,340.0,0.56
RMTI4,08/11/2020 02:43 UTC,17.71,87.0,0.83,325.0,1.11
RMTI4,08/11/2020 02:53 UTC,17.41,88.0,1.11,305.0,1.11
RMTI4,08/11/2020 03:03 UTC,17.01,90.0,1.67,320.0,1.94
RMTI4,08/11/2020 03:13 UTC,16.51,91.0,1.67,315.0,1.94
RMTI4,08/11/2020 03:23 UTC,16.31,92.0,1.39,315.0,1.67
RMTI4,08/11/2020 03:33 UTC,16.21,92.0,1.39,305.0,1.67
RMTI4,08/11/2020 03:43 UTC,16.21,93.0,1.39,310.0,1.94
RMTI4,08/11/2020 03:53 UTC,15.91,93.0,1.11,315.0,1.67
RMTI4,08/11/2020 04:03 UTC,15.81,93.0,1.39,320.0,1.67
RMTI4,08/11/2020 04:13 UTC,15.61,93.0,1.39,315.0,1.67
RMTI4,08/11/2020 04:23 UTC,15.71,93.0,1.11,305.0,1.67
RMTI4,08/11/2020 04:33 UTC,15.61,93.0,1.39,320.0,1.67
RMTI4,08/11/2020 04:43 UTC,15.31,93.0,0.56,355.0,0.83
RMTI4,08/11/2020 04:53 UTC,15.41,93.0,0.83,355.0,1.11
RMTI4,08/11/2020 05:03 UTC,15.31,93.0,0.56,335.0,1.11
RMTI4,08/11/2020 05:13 UTC,15.21,93.0,0.28,335.0,0.83
RMTI4,08/11/2020 05:23 UTC,15.21,93.0,0.28,335.0,0.56
RMTI4,08/11/2020 05:33 UTC,15.11,93.0,1.11,5.0,1.39
RMTI4,08/11/2020 05:43 UTC,14.81,94.0,0.28,5.0,1.11
RMTI4,08/11/2020 05:53 UTC,14.61,94.0,0.83,355.0,1.11
